| time (UTC) | temp F | wind direction | speed knots | gust knots | rain 1hr in | rain 24hr in | rain mn in | humidity % | barometer mb |
| 20260506132325 | 68 | 13 | 0.0 | 0.9 | 0.00 | 0.00 | 0.00 | 92 | 1034.2 |
| 20260506131823 | 68 | 358 | 1.7 | 1.7 | 0.00 | 0.00 | 0.00 | 92 | 1034.1 |
| 20260506131319 | 68 | 18 | 0.0 | 0.0 | 0.00 | 0.00 | 0.00 | 93 | 1034.2 |
| 20260506130817 | 68 | 19 | 0.0 | 0.0 | 0.00 | 0.00 | 0.00 | 93 | 1034.3 |
| 20260506130313 | 68 | 345 | 0.0 | 0.0 | 0.00 | 0.00 | 0.00 | 93 | 1034.4 |
| 20260506125811 | 68 | 350 | 0.9 | 0.9 | 0.00 | 0.00 | 0.00 | 93 | 1034.2 |
| 20260506125309 | 68 | 343 | 0.0 | 0.0 | 0.00 | 0.00 | 0.00 | 93 | 1034.1 |
| 20260506124807 | 68 | 354 | 0.0 | 0.9 | 0.00 | 0.00 | 0.00 | 93 | 1033.9 |
| 20260506124304 | 68 | 352 | 0.0 | 0.0 | 0.00 | 0.00 | 0.00 | 93 | 1034.1 |
| 20260506123801 | 68 | 348 | 0.0 | 0.0 | 0.00 | 0.00 | 0.00 | 93 | 1034.0 |
| 20260506123300 | 67 | 14 | 1.7 | 1.7 | 0.00 | 0.00 | 0.00 | 93 | 1034.0 |
| 20260506122756 | 67 | 7 | 0.0 | 0.0 | 0.00 | 0.00 | 0.00 | 93 | 1033.8 |
| 20260506122253 | 67 | 272 | 0.9 | 2.6 | 0.00 | 0.00 | 0.00 | 93 | 1033.8 |
| 20260506121751 | 67 | 318 | 2.6 | 2.6 | 0.00 | 0.00 | 0.00 | 93 | 1033.6 |
| 20260506121248 | 67 | 5 | 0.0 | 0.0 | 0.00 | 0.00 | 0.00 | 92 | 1033.9 |
| 20260506120745 | 67 | 8 | 0.0 | 0.0 | 0.00 | 0.00 | 0.00 | 92 | 1033.5 |
| 20260506120243 | 67 | 4 | 0.0 | 0.0 | 0.00 | 0.00 | 0.00 | 92 | 1033.3 |
| 20260506115740 | 67 | 2 | 0.0 | 0.0 | 0.00 | 0.00 | 0.00 | 92 | 1033.4 |
| 20260506115239 | 67 | 351 | 0.0 | 0.9 | 0.00 | 0.00 | 0.00 | 92 | 1032.9 |
| 20260506114736 | 67 | 28 | 0.0 | 0.0 | 0.00 | 0.00 | 0.00 | 92 | 1033.1 |
| 20260506114234 | 66 | 6 | 0.0 | 0.0 | 0.00 | 0.00 | 0.00 | 92 | 1033.0 |
| 20260506113732 | 66 | 7 | 0.0 | 0.0 | 0.00 | 0.00 | 0.00 | 92 | 1033.3 |
| 20260506113229 | 66 | 0 | 0.0 | 0.0 | 0.00 | 0.00 | 0.00 | 92 | 1032.8 |
| 20260506112725 | 66 | 1 | 0.0 | 0.9 | 0.00 | 0.00 | 0.00 | 92 | 1032.7 |
| 20260506112223 | 66 | 319 | 0.9 | 2.6 | 0.00 | 0.00 | 0.00 | 91 | 1032.6 |
| 20260506111720 | 66 | 1 | 1.7 | 1.7 | 0.00 | 0.00 | 0.00 | 91 | 1032.6 |
| 20260506111218 | 66 | 12 | 0.0 | 0.0 | 0.00 | 0.00 | 0.00 | 91 | 1032.7 |
| 20260506110715 | 66 | 11 | 0.0 | 0.0 | 0.00 | 0.00 | 0.00 | 91 | 1032.8 |
| 20260506110213 | 66 | 3 | 0.0 | 0.0 | 0.00 | 0.00 | 0.00 | 91 | 1032.7 |
| 20260506105709 | 66 | 359 | 0.0 | 0.0 | 0.00 | 0.00 | 0.00 | 91 | 1032.5 |
| 20260506105206 | 66 | 356 | 0.0 | 0.0 | 0.00 | 0.00 | 0.00 | 91 | 1032.5 |
| 20260506104704 | 66 | 1 | 0.0 | 0.0 | 0.00 | 0.00 | 0.00 | 91 | 1032.3 |
| 20260506104201 | 66 | 355 | 0.0 | 0.0 | 0.00 | 0.00 | 0.00 | 91 | 1032.4 |
| 20260506103658 | 66 | 11 | 0.0 | 0.0 | 0.00 | 0.00 | 0.00 | 90 | 1032.6 |
| 20260506103155 | 66 | 359 | 0.9 | 1.7 | 0.00 | 0.00 | 0.00 | 90 | 1032.3 |
| 20260506102653 | 66 | 7 | 0.0 | 0.0 | 0.00 | 0.00 | 0.00 | 90 | 1032.1 |
| 20260506102151 | 66 | 12 | 0.0 | 0.0 | 0.00 | 0.00 | 0.00 | 90 | 1032.2 |
| 20260506101647 | 66 | 3 | 0.9 | 1.7 | 0.00 | 0.00 | 0.00 | 90 | 1032.3 |
| 20260506101144 | 66 | 0 | 0.0 | 0.0 | 0.00 | 0.00 | 0.00 | 90 | 1032.1 |
| 20260506100643 | 66 | 2 | 0.0 | 0.0 | 0.00 | 0.00 | 0.00 | 90 | 1032.0 |
| 20260506100140 | 66 | 4 | 0.9 | 0.9 | 0.00 | 0.00 | 0.00 | 90 | 1031.7 |
| 20260506095639 | 67 | 352 | 0.0 | 0.0 | 0.00 | 0.00 | 0.00 | 89 | 1031.9 |
| 20260506095135 | 67 | 358 | 0.9 | 0.9 | 0.00 | 0.00 | 0.00 | 89 | 1031.9 |
| 20260506094632 | 67 | 1 | 0.0 | 0.0 | 0.00 | 0.00 | 0.00 | 89 | 1031.8 |
| 20260506094130 | 67 | 344 | 0.0 | 0.0 | 0.00 | 0.00 | 0.00 | 89 | 1031.8 |
| 20260506093629 | 67 | 351 | 0.0 | 0.0 | 0.00 | 0.00 | 0.00 | 89 | 1031.6 |
| 20260506093125 | 67 | 358 | 0.9 | 1.7 | 0.00 | 0.00 | 0.00 | 89 | 1031.4 |
| 20260506092623 | 67 | 6 | 0.0 | 0.9 | 0.00 | 0.00 | 0.00 | 88 | 1031.4 |
| 20260506092120 | 67 | 1 | 0.9 | 0.9 | 0.00 | 0.00 | 0.00 | 88 | 1031.3 |
| 20260506091618 | 67 | 350 | 0.0 | 0.0 | 0.00 | 0.00 | 0.00 | 88 | 1031.4 |
| 20260506091114 | 67 | 345 | 0.0 | 0.0 | 0.00 | 0.00 | 0.00 | 87 | 1031.5 |
| 20260506090613 | 67 | 2 | 0.0 | 0.0 | 0.00 | 0.00 | 0.00 | 87 | 1031.5 |
| 20260506085600 | 67 | 6 | 0.0 | 0.0 | 0.00 | 0.00 | 0.00 | 87 | 1031.0 |
| 20260506085056 | 67 | 2 | 1.7 | 1.7 | 0.00 | 0.00 | 0.00 | 87 | 1030.9 |
| 20260506084553 | 67 | 357 | 0.0 | 0.0 | 0.00 | 0.00 | 0.00 | 87 | 1031.1 |
| 20260506084049 | 67 | 3 | 0.0 | 0.9 | 0.00 | 0.00 | 0.00 | 87 | 1031.0 |
| 20260506083547 | 67 | 354 | 0.0 | 0.0 | 0.00 | 0.00 | 0.00 | 87 | 1031.0 |
| 20260506083044 | 67 | 347 | 0.9 | 1.7 | 0.00 | 0.00 | 0.00 | 86 | 1031.2 |
| 20260506082541 | 67 | 8 | 0.0 | 0.0 | 0.00 | 0.00 | 0.00 | 86 | 1031.1 |
| 20260506082036 | 67 | 329 | 0.9 | 1.7 | 0.00 | 0.00 | 0.00 | 86 | 1031.1 |
| 20260506081535 | 67 | 7 | 0.0 | 0.0 | 0.00 | 0.00 | 0.00 | 86 | 1031.1 |
| 20260506081032 | 67 | 4 | 0.0 | 0.0 | 0.00 | 0.00 | 0.00 | 86 | 1031.3 |
| 20260506080530 | 67 | 7 | 0.0 | 0.0 | 0.00 | 0.00 | 0.00 | 85 | 1031.2 |
| 20260506073513 | 68 | 335 | 0.9 | 1.7 | 0.00 | 0.00 | 0.00 | 83 | 1031.3 |
| 20260506073010 | 68 | 334 | 1.7 | 1.7 | 0.00 | 0.00 | 0.00 | 83 | 1031.1 |
| 20260506072507 | 68 | 358 | 0.0 | 0.0 | 0.00 | 0.00 | 0.00 | 83 | 1031.0 |
| 20260506072005 | 68 | 351 | 0.9 | 0.9 | 0.00 | 0.00 | 0.00 | 83 | 1031.1 |
| 20260506071503 | 68 | 9 | 0.9 | 1.7 | 0.00 | 0.00 | 0.00 | 83 | 1031.2 |
| 20260506071000 | 68 | 11 | 0.9 | 0.9 | 0.00 | 0.00 | 0.00 | 82 | 1031.2 |
| 20260506070457 | 68 | 2 | 1.7 | 1.7 | 0.00 | 0.00 | 0.00 | 82 | 1031.4 |
| 20260506062434 | 69 | 358 | 0.9 | 1.7 | 0.00 | 0.00 | 0.00 | 81 | 1031.7 |
| 20260506061930 | 69 | 336 | 0.0 | 1.7 | 0.00 | 0.00 | 0.00 | 81 | 1031.9 |
| 20260506061427 | 69 | 350 | 0.9 | 1.7 | 0.00 | 0.00 | 0.00 | 80 | 1031.9 |
| 20260506060925 | 69 | 11 | 0.0 | 0.9 | 0.00 | 0.00 | 0.00 | 81 | 1031.9 |
| 20260506060423 | 69 | 352 | 0.9 | 0.9 | 0.00 | 0.00 | 0.00 | 80 | 1032.0 |
| 20260506051354 | 69 | 1 | 1.7 | 1.7 | 0.00 | 0.00 | 0.00 | 79 | 1031.9 |
| 20260506050852 | 69 | 359 | 1.7 | 2.6 | 0.00 | 0.00 | 0.00 | 78 | 1032.0 |
| 20260506050349 | 69 | 10 | 0.9 | 1.7 | 0.00 | 0.00 | 0.00 | 78 | 1031.9 |
| 20260506044839 | 69 | 356 | 1.7 | 1.7 | 0.00 | 0.00 | 0.00 | 78 | 1031.8 |
| 20260506044338 | 70 | 356 | 1.7 | 1.7 | 0.00 | 0.00 | 0.00 | 77 | 1031.7 |
| 20260506043834 | 70 | 344 | 0.9 | 0.9 | 0.00 | 0.00 | 0.00 | 77 | 1031.7 |
| 20260506043331 | 70 | 4 | 1.7 | 2.6 | 0.00 | 0.00 | 0.00 | 77 | 1031.8 |
| 20260506042830 | 70 | 8 | 0.9 | 1.7 | 0.00 | 0.00 | 0.00 | 78 | 1031.4 |
| 20260506042328 | 70 | 12 | 0.0 | 0.9 | 0.00 | 0.00 | 0.00 | 77 | 1031.5 |
| 20260506041827 | 70 | 7 | 0.0 | 0.9 | 0.00 | 0.00 | 0.00 | 77 | 1031.8 |
| 20260506041323 | 70 | 14 | 0.9 | 1.7 | 0.00 | 0.00 | 0.00 | 77 | 1031.7 |
| 20260506040821 | 70 | 358 | 1.7 | 1.7 | 0.00 | 0.00 | 0.00 | 77 | 1031.9 |
| 20260506040318 | 70 | 17 | 0.0 | 0.0 | 0.00 | 0.00 | 0.00 | 77 | 1031.7 |
| 20260506035814 | 70 | 12 | 0.9 | 1.7 | 0.00 | 0.00 | 0.00 | 76 | 1031.6 |
| 20260506035312 | 70 | 340 | 1.7 | 1.7 | 0.00 | 0.00 | 0.00 | 76 | 1031.8 |
| 20260506034809 | 71 | 358 | 2.6 | 2.6 | 0.00 | 0.00 | 0.00 | 75 | 1031.9 |
| 20260506034306 | 71 | 1 | 2.6 | 2.6 | 0.00 | 0.00 | 0.00 | 75 | 1031.9 |
| 20260506033803 | 71 | 15 | 0.9 | 1.7 | 0.00 | 0.00 | 0.00 | 75 | 1031.5 |
| 20260506033300 | 71 | 15 | 1.7 | 1.7 | 0.00 | 0.00 | 0.00 | 75 | 1031.9 |
| 20260506032756 | 71 | 8 | 0.9 | 1.7 | 0.00 | 0.00 | 0.00 | 74 | 1031.8 |
| 20260506032253 | 71 | 3 | 1.7 | 2.6 | 0.00 | 0.00 | 0.00 | 74 | 1031.8 |
| 20260506031750 | 71 | 4 | 1.7 | 2.6 | 0.00 | 0.00 | 0.00 | 73 | 1031.8 |
| 20260506031247 | 71 | 358 | 0.9 | 0.9 | 0.00 | 0.00 | 0.00 | 73 | 1031.6 |
| 20260506030745 | 70 | 8 | 1.7 | 1.7 | 0.00 | 0.00 | 0.00 | 73 | 1031.4 |
| 20260506030243 | 70 | 17 | 0.0 | 0.0 | 0.00 | 0.00 | 0.00 | 73 | 1031.6 |
| 20260506025740 | 71 | 14 | 0.9 | 0.9 | 0.00 | 0.00 | 0.00 | 72 | 1031.6 |
| 20260506025236 | 71 | 16 | 0.0 | 0.9 | 0.00 | 0.00 | 0.00 | 72 | 1031.6 |
| 20260506024733 | 71 | 12 | 1.7 | 1.7 | 0.00 | 0.00 | 0.00 | 71 | 1031.4 |
| 20260506024230 | 71 | 15 | 0.0 | 0.0 | 0.00 | 0.00 | 0.00 | 71 | 1031.5 |
| 20260506023726 | 71 | 13 | 0.0 | 0.0 | 0.00 | 0.00 | 0.00 | 71 | 1031.6 |
| 20260506023223 | 70 | 17 | 0.0 | 0.0 | 0.00 | 0.00 | 0.00 | 71 | 1031.3 |
| 20260506022720 | 70 | 16 | 0.0 | 0.0 | 0.00 | 0.00 | 0.00 | 71 | 1031.5 |
| 20260506022218 | 70 | 15 | 0.0 | 0.0 | 0.00 | 0.00 | 0.00 | 70 | 1031.3 |
| 20260506021715 | 71 | 16 | 0.0 | 0.0 | 0.00 | 0.00 | 0.00 | 70 | 1031.1 |
| 20260506021212 | 71 | 8 | 0.0 | 0.0 | 0.00 | 0.00 | 0.00 | 70 | 1031.4 |
| 20260506020709 | 71 | 2 | 0.0 | 0.0 | 0.00 | 0.00 | 0.00 | 69 | 1031.5 |
| 20260506020207 | 71 | 1 | 0.0 | 0.0 | 0.00 | 0.00 | 0.00 | 69 | 1031.2 |
| 20260506015704 | 71 | 356 | 0.0 | 0.0 | 0.00 | 0.00 | 0.00 | 69 | 1031.3 |
| 20260506015202 | 71 | 359 | 0.0 | 0.0 | 0.00 | 0.00 | 0.00 | 69 | 1031.3 |
| 20260506014658 | 71 | 359 | 0.0 | 0.0 | 0.00 | 0.00 | 0.00 | 69 | 1031.2 |
| 20260506014154 | 71 | 359 | 0.0 | 0.0 | 0.00 | 0.00 | 0.00 | 69 | 1031.3 |
| 20260506013652 | 71 | 359 | 0.0 | 0.0 | 0.00 | 0.00 | 0.00 | 69 | 1031.3 |
| 20260506013149 | 71 | 359 | 0.0 | 0.0 | 0.00 | 0.00 | 0.00 | 69 | 1031.1 |
| 20260506012645 | 71 | 359 | 0.0 | 0.0 | 0.00 | 0.00 | 0.00 | 69 | 1031.3 |
| 20260506012142 | 71 | 359 | 0.0 | 0.0 | 0.00 | 0.00 | 0.00 | 69 | 1031.2 |
| 20260506011640 | 71 | 0 | 0.0 | 0.0 | 0.00 | 0.00 | 0.00 | 68 | 1031.7 |
| 20260506011136 | 71 | 0 | 0.0 | 0.0 | 0.00 | 0.00 | 0.00 | 68 | 1031.5 |
| 20260506010634 | 72 | 0 | 0.0 | 0.0 | 0.00 | 0.00 | 0.00 | 68 | 1031.2 |
| 20260506010131 | 72 | 0 | 0.0 | 0.0 | 0.00 | 0.00 | 0.00 | 68 | 1031.0 |
| 20260506005622 | 72 | 0 | 0.0 | 0.0 | 0.00 | 0.00 | 0.00 | 67 | 1031.2 |
| 20260506005119 | 72 | 0 | 0.0 | 0.0 | 0.00 | 0.00 | 0.00 | 66 | 1031.2 |
| 20260506004616 | 72 | 0 | 0.0 | 0.0 | 0.00 | 0.00 | 0.00 | 66 | 1031.1 |
| 20260506004113 | 72 | 0 | 0.0 | 0.0 | 0.00 | 0.00 | 0.00 | 67 | 1031.1 |
| 20260506003609 | 73 | 0 | 0.0 | 0.0 | 0.00 | 0.00 | 0.00 | 66 | 1030.7 |
| 20260506003105 | 73 | 1 | 0.0 | 0.0 | 0.00 | 0.00 | 0.00 | 65 | 1030.9 |
| 20260506002601 | 73 | 4 | 0.0 | 0.0 | 0.00 | 0.00 | 0.00 | 66 | 1031.1 |
| 20260506002057 | 73 | 353 | 0.0 | 0.0 | 0.00 | 0.00 | 0.00 | 65 | 1031.0 |
| 20260506001553 | 73 | 356 | 0.0 | 0.0 | 0.00 | 0.00 | 0.00 | 65 | 1031.2 |
| 20260506001051 | 73 | 353 | 0.0 | 0.0 | 0.00 | 0.00 | 0.00 | 65 | 1031.3 |
| 20260506000548 | 73 | 354 | 0.0 | 0.0 | 0.00 | 0.00 | 0.00 | 65 | 1031.4 |
| 20260506000045 | 74 | 2 | 0.0 | 0.0 | 0.00 | 0.00 | 0.00 | 65 | 1031.5 |
| 20260505235543 | 74 | 358 | 0.0 | 0.0 | 0.00 | 0.00 | 0.00 | 63 | 1031.3 |
| 20260505235040 | 74 | 2 | 0.0 | 0.0 | 0.00 | 0.00 | 0.00 | 63 | 1031.5 |
| 20260505234537 | 74 | 350 | 0.0 | 0.0 | 0.00 | 0.00 | 0.00 | 63 | 1031.3 |
| 20260505234034 | 74 | 344 | 0.0 | 0.0 | 0.00 | 0.00 | 0.00 | 64 | 1031.2 |
| 20260505233531 | 74 | 345 | 0.0 | 0.0 | 0.00 | 0.00 | 0.00 | 64 | 1031.2 |
| 20260505233029 | 74 | 345 | 0.0 | 0.0 | 0.00 | 0.00 | 0.00 | 63 | 1031.5 |
| 20260505232526 | 74 | 350 | 0.0 | 0.0 | 0.00 | 0.00 | 0.00 | 62 | 1031.7 |
| 20260505232023 | 74 | 353 | 0.0 | 0.0 | 0.00 | 0.00 | 0.00 | 63 | 1031.7 |
| 20260505231520 | 74 | 355 | 0.0 | 0.0 | 0.00 | 0.00 | 0.00 | 63 | 1031.6 |
| 20260505231013 | 74 | 353 | 0.9 | 0.9 | 0.00 | 0.00 | 0.00 | 62 | 1031.7 |
| 20260505230510 | 74 | 12 | 0.0 | 0.0 | 0.00 | 0.00 | 0.00 | 64 | 1031.8 |
| 20260505230007 | 74 | 351 | 0.9 | 0.9 | 0.00 | 0.00 | 0.00 | 63 | 1031.7 |
| 20260505225504 | 74 | 6 | 0.0 | 0.0 | 0.00 | 0.00 | 0.00 | 63 | 1031.8 |
| 20260505224959 | 75 | 353 | 0.9 | 1.7 | 0.00 | 0.00 | 0.00 | 62 | 1032.0 |
| 20260505224456 | 75 | 355 | 1.7 | 1.7 | 0.00 | 0.00 | 0.00 | 61 | 1031.9 |
| 20260505223954 | 74 | 0 | 0.9 | 0.9 | 0.00 | 0.00 | 0.00 | 62 | 1031.8 |
| 20260505223450 | 74 | 14 | 0.9 | 0.9 | 0.00 | 0.00 | 0.00 | 62 | 1032.0 |
| 20260505222947 | 74 | 9 | 0.0 | 0.0 | 0.00 | 0.00 | 0.00 | 62 | 1031.8 |
| 20260505222443 | 74 | 10 | 0.9 | 1.7 | 0.00 | 0.00 | 0.00 | 62 | 1031.7 |
| 20260505221939 | 75 | 354 | 0.0 | 0.0 | 0.00 | 0.00 | 0.00 | 63 | 1031.7 |
| 20260505221437 | 75 | 317 | 2.6 | 2.6 | 0.00 | 0.00 | 0.00 | 64 | 1031.8 |
| 20260505220934 | 75 | 8 | 0.0 | 0.0 | 0.00 | 0.00 | 0.00 | 63 | 1031.7 |
| 20260505220430 | 74 | 316 | 2.6 | 3.5 | 0.00 | 0.00 | 0.00 | 63 | 1031.3 |
| 20260505215927 | 74 | 8 | 0.0 | 0.0 | 0.00 | 0.00 | 0.00 | 62 | 1031.7 |
| 20260505215425 | 74 | 1 | 1.7 | 1.7 | 0.00 | 0.00 | 0.00 | 64 | 1031.8 |
| 20260505214924 | 75 | 18 | 0.9 | 0.9 | 0.00 | 0.00 | 0.00 | 65 | 1031.8 |
| 20260505214421 | 75 | 4 | 0.9 | 0.9 | 0.00 | 0.00 | 0.00 | 63 | 1031.9 |
| 20260505213918 | 75 | 359 | 0.0 | 0.0 | 0.00 | 0.00 | 0.00 | 61 | 1031.8 |
| 20260505213416 | 75 | 17 | 0.9 | 1.7 | 0.00 | 0.00 | 0.00 | 61 | 1031.9 |
| 20260505212912 | 75 | 13 | 1.7 | 1.7 | 0.00 | 0.00 | 0.00 | 66 | 1031.9 |
| 20260505212409 | 75 | 355 | 0.9 | 0.9 | 0.00 | 0.00 | 0.00 | 64 | 1032.0 |
| 20260505211905 | 75 | 343 | 0.9 | 1.7 | 0.00 | 0.00 | 0.00 | 64 | 1031.7 |
| 20260505211403 | 76 | 8 | 0.9 | 1.7 | 0.00 | 0.00 | 0.00 | 62 | 1031.7 |
| 20260505210859 | 76 | 313 | 1.7 | 2.6 | 0.00 | 0.00 | 0.00 | 61 | 1031.8 |
| 20260505210356 | 76 | 355 | 0.0 | 0.0 | 0.00 | 0.00 | 0.00 | 60 | 1031.8 |
| 20260505205853 | 75 | 344 | 0.9 | 1.7 | 0.00 | 0.00 | 0.00 | 66 | 1031.7 |
| 20260505205351 | 75 | 22 | 0.9 | 0.9 | 0.00 | 0.00 | 0.00 | 64 | 1031.6 |
| 20260505204848 | 76 | 1 | 0.9 | 1.7 | 0.00 | 0.00 | 0.00 | 61 | 1031.9 |
| 20260505204346 | 76 | 339 | 1.7 | 1.7 | 0.00 | 0.00 | 0.00 | 60 | 1031.9 |
| 20260505203843 | 76 | 354 | 1.7 | 2.6 | 0.00 | 0.00 | 0.00 | 64 | 1031.8 |
| 20260505203339 | 75 | 15 | 0.0 | 0.0 | 0.00 | 0.00 | 0.00 | 61 | 1032.0 |
| 20260505202836 | 75 | 3 | 2.6 | 2.6 | 0.00 | 0.00 | 0.00 | 60 | 1031.8 |
| 20260505202332 | 75 | 12 | 0.9 | 1.7 | 0.00 | 0.00 | 0.00 | 65 | 1032.0 |
| 20260505201829 | 75 | 23 | 0.9 | 0.9 | 0.00 | 0.00 | 0.00 | 64 | 1032.0 |
| 20260505201326 | 75 | 358 | 0.0 | 0.0 | 0.00 | 0.00 | 0.00 | 64 | 1031.9 |
| 20260505200825 | 75 | 15 | 0.0 | 0.0 | 0.00 | 0.00 | 0.00 | 64 | 1032.5 |
| 20260505200321 | 75 | 2 | 0.9 | 1.7 | 0.00 | 0.00 | 0.00 | 63 | 1032.4 |
| 20260505195816 | 76 | 348 | 0.9 | 1.7 | 0.00 | 0.00 | 0.00 | 60 | 1032.8 |
| 20260505195314 | 75 | 31 | 1.7 | 1.7 | 0.00 | 0.00 | 0.00 | 62 | 1032.4 |
| 20260505194811 | 76 | 9 | 0.0 | 0.0 | 0.00 | 0.00 | 0.00 | 61 | 1032.8 |
| 20260505194308 | 75 | 6 | 0.0 | 0.0 | 0.00 | 0.00 | 0.00 | 58 | 1032.7 |
| 20260505193803 | 75 | 28 | 0.0 | 0.0 | 0.00 | 0.00 | 0.00 | 64 | 1032.6 |
| 20260505193301 | 74 | 344 | 0.9 | 0.9 | 0.00 | 0.00 | 0.00 | 64 | 1032.6 |
| 20260505192759 | 75 | 19 | 0.9 | 1.7 | 0.00 | 0.00 | 0.00 | 62 | 1032.8 |
| 20260505192257 | 76 | 13 | 2.6 | 2.6 | 0.00 | 0.00 | 0.00 | 62 | 1032.6 |
| 20260505191754 | 74 | 350 | 0.0 | 0.9 | 0.00 | 0.00 | 0.00 | 63 | 1032.6 |
| 20260505191253 | 74 | 15 | 1.7 | 1.7 | 0.00 | 0.00 | 0.00 | 61 | 1033.0 |
| 20260505190749 | 75 | 335 | 0.0 | 0.9 | 0.00 | 0.00 | 0.00 | 63 | 1033.1 |
| 20260505190244 | 75 | 344 | 1.7 | 1.7 | 0.00 | 0.00 | 0.00 | 58 | 1033.1 |
| 20260505185740 | 77 | 335 | 1.7 | 1.7 | 0.00 | 0.00 | 0.00 | 58 | 1033.1 |
| 20260505185237 | 76 | 343 | 0.0 | 0.0 | 0.00 | 0.00 | 0.00 | 63 | 1033.4 |
| 20260505184733 | 75 | 20 | 0.0 | 0.0 | 0.00 | 0.00 | 0.00 | 60 | 1033.3 |
| 20260505184231 | 74 | 21 | 0.0 | 0.9 | 0.00 | 0.00 | 0.00 | 63 | 1033.4 |
| 20260505183727 | 74 | 13 | 2.6 | 2.6 | 0.00 | 0.00 | 0.00 | 64 | 1033.4 |
| 20260505183225 | 74 | 355 | 0.9 | 0.9 | 0.00 | 0.00 | 0.00 | 61 | 1033.4 |
| 20260505182721 | 76 | 5 | 0.0 | 0.0 | 0.00 | 0.00 | 0.00 | 63 | 1033.4 |
| 20260505182218 | 75 | 13 | 0.0 | 0.0 | 0.00 | 0.00 | 0.00 | 61 | 1033.7 |
| 20260505181713 | 73 | 358 | 0.0 | 0.0 | 0.00 | 0.00 | 0.00 | 63 | 1033.5 |
| 20260505181212 | 73 | 24 | 0.0 | 0.0 | 0.00 | 0.00 | 0.00 | 64 | 1033.7 |
| 20260505180708 | 74 | 307 | 2.6 | 3.5 | 0.00 | 0.00 | 0.00 | 66 | 1033.8 |
| 20260505180205 | 74 | 17 | 0.0 | 0.0 | 0.00 | 0.00 | 0.00 | 62 | 1033.7 |
| 20260505175701 | 73 | 12 | 0.0 | 0.0 | 0.00 | 0.00 | 0.00 | 65 | 1033.6 |
| 20260505175158 | 73 | 324 | 0.9 | 1.7 | 0.00 | 0.00 | 0.00 | 66 | 1033.7 |
| 20260505174654 | 73 | 344 | 1.7 | 2.6 | 0.00 | 0.00 | 0.00 | 66 | 1033.8 |
| 20260505174150 | 72 | 2 | 0.0 | 0.9 | 0.00 | 0.00 | 0.00 | 66 | 1034.2 |
| 20260505173646 | 72 | 16 | 1.7 | 2.6 | 0.00 | 0.00 | 0.00 | 64 | 1034.1 |
| 20260505173144 | 73 | 13 | 0.0 | 0.0 | 0.00 | 0.00 | 0.00 | 65 | 1034.2 |
| 20260505172641 | 73 | 318 | 1.7 | 1.7 | 0.00 | 0.00 | 0.00 | 66 | 1034.0 |
| 20260505172138 | 74 | 8 | 0.0 | 0.9 | 0.00 | 0.00 | 0.00 | 60 | 1034.3 |
| 20260505171637 | 74 | 24 | 0.0 | 0.9 | 0.00 | 0.00 | 0.00 | 58 | 1034.3 |
| 20260505171135 | 73 | 348 | 0.0 | 0.0 | 0.00 | 0.00 | 0.00 | 66 | 1034.1 |
| 20260505170632 | 73 | 343 | 0.0 | 1.7 | 0.00 | 0.00 | 0.00 | 63 | 1034.3 |
| 20260505170128 | 72 | 330 | 0.9 | 1.7 | 0.00 | 0.00 | 0.00 | 60 | 1034.3 |
| 20260505165623 | 71 | 13 | 0.9 | 1.7 | 0.00 | 0.00 | 0.00 | 67 | 1034.5 |
| 20260505165120 | 72 | 321 | 2.6 | 2.6 | 0.00 | 0.00 | 0.00 | 66 | 1034.6 |
| 20260505164615 | 72 | 354 | 1.7 | 1.7 | 0.00 | 0.00 | 0.00 | 65 | 1034.5 |
| 20260505164114 | 72 | 339 | 1.7 | 1.7 | 0.00 | 0.00 | 0.00 | 64 | 1034.3 |
| 20260505163612 | 72 | 17 | 0.0 | 0.0 | 0.00 | 0.00 | 0.00 | 66 | 1034.5 |
| 20260505163109 | 72 | 346 | 1.7 | 2.6 | 0.00 | 0.00 | 0.00 | 65 | 1034.8 |
| 20260505162606 | 72 | 25 | 1.7 | 1.7 | 0.00 | 0.00 | 0.00 | 63 | 1034.4 |
| 20260505162104 | 72 | 337 | 0.9 | 0.9 | 0.00 | 0.00 | 0.00 | 64 | 1034.7 |
| 20260505161601 | 71 | 1 | 0.0 | 0.9 | 0.00 | 0.00 | 0.00 | 66 | 1034.5 |
| 20260505161058 | 70 | 335 | 2.6 | 3.5 | 0.00 | 0.00 | 0.00 | 68 | 1034.4 |
| 20260505160555 | 70 | 345 | 0.9 | 1.7 | 0.00 | 0.00 | 0.00 | 68 | 1034.6 |
| 20260505153032 | 69 | 27 | 0.0 | 0.0 | 0.00 | 0.00 | 0.00 | 69 | 1034.8 |
| 20260505152529 | 70 | 18 | 0.0 | 0.0 | 0.00 | 0.00 | 0.00 | 70 | 1034.8 |
| 20260505152025 | 70 | 16 | 0.0 | 0.0 | 0.00 | 0.00 | 0.00 | 69 | 1034.6 |
| 20260505151520 | 70 | 356 | 0.0 | 0.9 | 0.00 | 0.00 | 0.00 | 73 | 1034.6 |
| 20260505151018 | 69 | 18 | 0.0 | 0.0 | 0.00 | 0.00 | 0.00 | 69 | 1034.8 |
| 20260505150514 | 69 | 17 | 0.9 | 0.9 | 0.00 | 0.00 | 0.00 | 70 | 1034.8 |
| 20260505140439 | 64 | 354 | 0.0 | 0.0 | 0.00 | 0.00 | 0.00 | 78 | 1035.0 |